User: anonymous   Login
Location: Unspecified
(0.0000°N, 0.0000°E)
Time: 23:32:25
(UTC+00:00)
Language:

Skynet 4B - Orbit

View from above orbital plane
View from above orbital plane
View from above satellite
View from above satellite

Ground track
Ground track

The orbit data is extracted from the following two-line orbital elements,

1 19687U 88109A   21332.39225529 -.00000152  00000-0  00000-0 0  9994
2 19687  14.6363 349.6875 0003418 260.0727 128.9782  0.99680211101609
Epoch (UTC): 28 November 2021 09:24:50
Eccentricity: 0.0003418
inclination: 14.6363°
perigee height: 35938 km
apogee height: 35967 km
right ascension of ascending node: 349.6875°
argument of perigee: 260.0727°
revolutions per day: 0.99680211
mean anomaly at epoch: 128.9782°
orbit number at epoch: 10160

The dashed part of the orbit path shows where the satellite is in the earth's shadow,  

DLR